Tracking 34151 objects as of 20-May-2026
HD Live streaming from Space Station
objects crossing your sky now

COSMOS 1470

Track COSMOS 1470 now!
10-day predictions
COSMOS 1470 is classified as:


NORAD ID: 14147
Int'l Code: 1983-061A
Perigee: 427.9 km
Apogee: 440.8 km
Inclination: 82.5 °
Period: 93.1 minutes
Semi major axis: 6805 km
RCS: 8.3388 m2 (large)
Launch date: June 23, 1983
Source: Commonwealth of Independent States (former USSR) (CIS)
Launch site: PLESETSK MISSILE AND SPACE COMPLEX (PKMTR)
Your satellite tracking list
Your tracking list is empty




NASA's NSSDC Master Catalog

Two Line Element Set (TLE):
1 14147U 83061A   26140.19848330  .00010942  00000-0  22002-3 0  9999
2 14147  82.4689  43.0097 0009497  99.1378 261.0946 15.46417291 98774
Source of the keplerian elements: AFSPC